Hourly Weather Barsovo

Today, 19 June, Saturday

Time Temperature Precipitation Wind Pressure Humidity
00:00 +17°C° 0 mm 2 mps 751 mmHg 89%
01:00 +16°C° 0 mm 2 mps 751 mmHg 91%
02:00 +16°C° 0 mm 2 mps 751 mmHg 94%
03:00 +16°C° 0 mm 1 mps 751 mmHg 91%
04:00 +18°C° 0 mm 1 mps 751 mmHg 89%
05:00 +18°C° 0 mm 1 mps 752 mmHg 87%
06:00 +20°C° 0 mm 1 mps 752 mmHg 79%
07:00 +21°C° 0 mm 2 mps 752 mmHg 70%
08:00 +24°C° 0 mm 2 mps 752 mmHg 62%
09:00 +25°C° 0 mm 2 mps 751 mmHg 56%
10:00 +27°C° 0 mm 2 mps 751 mmHg 51%
11:00 +28°C° 0 mm 2 mps 751 mmHg 45%
12:00 +29°C° 0 mm 2 mps 751 mmHg 43%
13:00 +29°C° 0 mm 2 mps 750 mmHg 40%
14:00 +30°C° 0 mm 2 mps 750 mmHg 38%
15:00 +30°C° 0 mm 2 mps 750 mmHg 39%
16:00 +29°C° 0 mm 2 mps 750 mmHg 41%
17:00 +29°C° 0 mm 2 mps 749 mmHg 43%
18:00 +27°C° 0 mm 2 mps 749 mmHg 54%
19:00 +24°C° 0 mm 2 mps 749 mmHg 64%
20:00 +21°C° 0 mm 2 mps 749 mmHg 74%
21:00 +20°C° 0 mm 2 mps 749 mmHg 79%
22:00 +19°C° 0 mm 2 mps 750 mmHg 83%
23:00 +17°C° 0 mm 2 mps 750 mmHg 87%

Tomorrow, 20 June, Sunday

Time Temperature Precipitation Wind Pressure Humidity
00:00 +18°C° 0 mm 1 mps 750 mmHg 90%
01:00 +18°C° 0 mm 1 mps 750 mmHg 92%
02:00 +16°C° 0 mm 1 mps 750 mmHg 95%
03:00 +18°C° 0 mm 1 mps 750 mmHg 93%
04:00 +18°C° 0 mm 1 mps 750 mmHg 91%
05:00 +19°C° 0 mm 1 mps 750 mmHg 89%
06:00 +21°C° 0 mm 1 mps 750 mmHg 81%
07:00 +23°C° 0 mm 1 mps 750 mmHg 72%
08:00 +25°C° 0 mm 2 mps 750 mmHg 64%
09:00 +27°C° 0 mm 2 mps 749 mmHg 59%
10:00 +28°C° 0 mm 2 mps 749 mmHg 54%
11:00 +29°C° 0 mm 2 mps 749 mmHg 49%
12:00 +30°C° 0 mm 2 mps 749 mmHg 46%
13:00 +31°C° 0 mm 2 mps 748 mmHg 43%
14:00 +32°C° 0 mm 2 mps 748 mmHg 40%
15:00 +32°C° 0 mm 2 mps 748 mmHg 41%
16:00 +31°C° 0 mm 2 mps 748 mmHg 42%
17:00 +31°C° 0 mm 2 mps 747 mmHg 44%
18:00 +29°C° 0 mm 2 mps 747 mmHg 54%
19:00 +27°C° 0 mm 1 mps 747 mmHg 64%
20:00 +25°C° 0 mm 1 mps 747 mmHg 75%
21:00 +24°C° 0 mm 1 mps 748 mmHg 79%
22:00 +23°C° 0 mm 1 mps 748 mmHg 84%
23:00 +22°C° 0 mm 1 mps 748 mmHg 88%

Day after tomorrow, 21 June, Monday

Time Temperature Precipitation Wind Pressure Humidity
00:00 +21°C° 0 mm 1 mps 748 mmHg 90%
01:00 +20°C° 0 mm 1 mps 748 mmHg 92%
02:00 +20°C° 0 mm 1 mps 748 mmHg 93%
03:00 +20°C° 0 mm 1 mps 748 mmHg 91%
04:00 +21°C° 0 mm 1 mps 748 mmHg 89%
05:00 +21°C° 0 mm 1 mps 748 mmHg 87%
06:00 +23°C° 0 mm 2 mps 748 mmHg 79%
07:00 +24°C° 0 mm 2 mps 748 mmHg 70%
08:00 +26°C° 0 mm 2 mps 748 mmHg 61%
09:00 +27°C° 0 mm 2 mps 748 mmHg 55%
10:00 +29°C° 0 mm 3 mps 748 mmHg 48%
11:00 +30°C° 0 mm 3 mps 748 mmHg 42%
12:00 +31°C° 0 mm 3 mps 747 mmHg 39%
13:00 +33°C° 0 mm 3 mps 747 mmHg 36%
14:00 +33°C° 0 mm 3 mps 747 mmHg 33%
15:00 +33°C° 0 mm 3 mps 747 mmHg 35%
16:00 +31°C° 0 mm 3 mps 747 mmHg 38%
17:00 +31°C° 0 mm 3 mps 747 mmHg 40%
18:00 +29°C° 0 mm 3 mps 746 mmHg 50%
19:00 +26°C° 0 mm 3 mps 746 mmHg 61%
20:00 +24°C° 0 mm 2 mps 746 mmHg 71%
21:00 +23°C° 0 mm 2 mps 746 mmHg 75%
22:00 +21°C° 0 mm 2 mps 746 mmHg 78%
23:00 +20°C° 0 mm 2 mps 747 mmHg 82%

22 June, Tuesday

Time Temperature Precipitation Wind Pressure Humidity
00:00 +20°C° 0 mm 2 mps 747 mmHg 87%
01:00 +19°C° 0 mm 2 mps 747 mmHg 91%
02:00 +19°C° 0 mm 2 mps 747 mmHg 96%
03:00 +19°C° 0 mm 2 mps 747 mmHg 94%
04:00 +20°C° 0 mm 2 mps 747 mmHg 92%
05:00 +20°C° 0 mm 2 mps 747 mmHg 91%
06:00 +22°C° 0 mm 3 mps 747 mmHg 81%
07:00 +25°C° 0 mm 3 mps 747 mmHg 71%
08:00 +27°C° 0 mm 4 mps 747 mmHg 61%
09:00 +29°C° 0 mm 4 mps 747 mmHg 53%
10:00 +30°C° 0 mm 4 mps 747 mmHg 46%
11:00 +33°C° 0 mm 4 mps 747 mmHg 38%
12:00 +34°C° 0 mm 5 mps 747 mmHg 36%
13:00 +34°C° 0 mm 5 mps 747 mmHg 33%
14:00 +35°C° 0 mm 5 mps 747 mmHg 31%
15:00 +34°C° 0 mm 4 mps 747 mmHg 34%
16:00 +34°C° 0 mm 4 mps 746 mmHg 36%
17:00 +34°C° 0 mm 4 mps 746 mmHg 39%
18:00 +30°C° 0 mm 3 mps 746 mmHg 49%
19:00 +28°C° 0 mm 2 mps 746 mmHg 60%
20:00 +26°C° 0 mm 2 mps 746 mmHg 70%
21:00 +25°C° 0 mm 2 mps 747 mmHg 74%
22:00 +24°C° 0 mm 2 mps 747 mmHg 79%
23:00 +23°C° 0 mm 2 mps 747 mmHg 83%

23 June, Wednesday

Time Temperature Precipitation Wind Pressure Humidity
00:00 +21°C° 0 mm 2 mps 748 mmHg 87%
01:00 +21°C° 0 mm 2 mps 748 mmHg 91%
02:00 +20°C° 0 mm 2 mps 748 mmHg 94%
03:00 +21°C° 0 mm 2 mps 748 mmHg 93%
04:00 +21°C° 0 mm 2 mps 748 mmHg 92%
05:00 +23°C° 0 mm 2 mps 748 mmHg 90%
06:00 +25°C° 0 mm 2 mps 748 mmHg 82%
07:00 +27°C° 0 mm 2 mps 748 mmHg 73%
08:00 +29°C° 0 mm 3 mps 748 mmHg 64%
09:00 +30°C° 0 mm 3 mps 748 mmHg 56%
10:00 +33°C° 0 mm 3 mps 749 mmHg 49%
11:00 +34°C° 0 mm 4 mps 749 mmHg 41%
12:00 +35°C° 0 mm 4 mps 748 mmHg 38%
13:00 +35°C° 0 mm 3 mps 748 mmHg 35%
14:00 +36°C° 0 mm 3 mps 748 mmHg 32%
15:00 +36°C° 0 mm 3 mps 748 mmHg 34%
16:00 +35°C° 0 mm 3 mps 748 mmHg 36%
17:00 +35°C° 0 mm 3 mps 748 mmHg 37%
18:00 +31°C° 0 mm 2 mps 748 mmHg 48%
19:00 +29°C° 0 mm 2 mps 748 mmHg 58%
20:00 +26°C° 0 mm 2 mps 748 mmHg 68%
21:00 +25°C° 0 mm 2 mps 748 mmHg 71%
22:00 +24°C° 0 mm 2 mps 748 mmHg 73%
23:00 +23°C° 0 mm 2 mps 748 mmHg 76%

24 June, Thursday

Time Temperature Precipitation Wind Pressure Humidity
00:00 +23°C° 0 mm 2 mps 749 mmHg 79%
01:00 +21°C° 0 mm 2 mps 749 mmHg 83%
02:00 +21°C° 0 mm 2 mps 749 mmHg 86%
03:00 +21°C° 0 mm 2 mps 749 mmHg 86%
04:00 +23°C° 0 mm 1 mps 749 mmHg 85%
05:00 +23°C° 0 mm 1 mps 749 mmHg 85%
06:00 +25°C° 0 mm 2 mps 749 mmHg 76%
07:00 +27°C° 0 mm 2 mps 749 mmHg 67%
08:00 +29°C° 0 mm 2 mps 749 mmHg 57%
09:00 +30°C° 0 mm 3 mps 749 mmHg 51%
10:00 +33°C° 0 mm 3 mps 749 mmHg 46%
11:00 +34°C° 0 mm 3 mps 749 mmHg 40%
12:00 +35°C° 0 mm 3 mps 749 mmHg 36%
13:00 +35°C° 0 mm 3 mps 749 mmHg 33%
14:00 +36°C° 0 mm 3 mps 748 mmHg 30%
15:00 +36°C° 0 mm 3 mps 748 mmHg 33%
16:00 +35°C° 0 mm 3 mps 748 mmHg 36%
17:00 +35°C° 0 mm 2 mps 748 mmHg 39%
18:00 +31°C° 0 mm 2 mps 748 mmHg 49%
19:00 +29°C° 0 mm 2 mps 747 mmHg 60%
20:00 +27°C° 0 mm 2 mps 747 mmHg 70%
21:00 +26°C° 0 mm 2 mps 748 mmHg 74%
22:00 +24°C° 0 mm 2 mps 748 mmHg 78%
23:00 +23°C° 0 mm 1 mps 748 mmHg 82%
Show more